RH
9 9 9 9 9 9 8 8 8 8 8 8 8 9 9 9 9 9 9 9 9 8 8 7 6 5 4 4 3 3 4 4 5 5 5 4 4 4 5 8 11 14 16 19 21 24 25 28 33 35 39 44 44 46 54 60 61 62 62 62 62 60 57 56 54 51 48 49 51 49 42 40 41 44 45 42 41 41 45 51 51 52 52 53 55 54 54 51
8 8 9 9 9 9 9 9 9 9 9 9 8 8 8 9 9 9 9 9 9 8 8 8 7 7 6 5 4 3 3 4 4 4 4 4 5 4 5 6 9 13 15 18 21 23 24 24 28 35 40 42 41 45 52 57 58 60 62 61 58 56 54 54 53 50 46 46 50 51 46 42 41 41 43 41 39 39 41 46 48 51 54 54 54 52 53 53
7 7 7 7 8 8 9 9 9 9 9 9 9 9 9 9 9 9 9 9 9 8 8 8 8 8 7 6 5 4 3 4 4 5 5 5 5 4 4 5 8 12 14 16 19 20 20 19 23 32 38 38 40 45 48 53 55 57 60 58 54 52 51 50 50 51 49 47 49 52 49 44 42 42 41 38 38 38 38 40 42 47 51 52 53 50 51 51
6 6 6 6 7 7 7 8 8 8 8 9 8 9 9 8 9 9 9 9 9 9 8 8 8 8 7 7 6 5 4 3 4 6 7 6 4 3 4 5 7 10 12 15 17 18 18 18 21 30 35 35 39 42 44 51 52 53 55 52 49 49 48 46 47 48 49 49 49 50 49 45 43 42 38 36 38 38 39 40 39 42 44 48 51 48 48 48
7 7 6 6 6 6 6 7 7 7 8 8 8 8 8 9 9 9 9 9 9 9 8 8 8 8 7 7 7 6 6 5 6 9 10 8 5 3 3 6 7 8 10 15 17 17 19 21 23 29 33 34 38 40 41 49 50 48 48 46 45 47 47 45 45 46 47 49 49 48 49 47 44 42 38 38 38 36 40 45 45 44 41 43 48 47 46 45
9 8 7 7 6 6 6 6 6 6 6 7 7 8 8 8 8 8 8 8 9 9 8 8 8 7 7 7 7 6 6 6 7 9 11 9 6 5 4 6 7 8 9 13 16 16 19 23 25 29 34 34 37 39 40 45 46 44 42 41 42 45 46 45 45 46 45 47 48 47 48 46 43 41 39 39 38 37 39 43 46 47 44 44 47 46 44 43
12 10 9 8 7 7 6 6 6 6 6 6 6 6 7 7 7 8 8 8 8 8 8 8 8 8 7 7 7 6 6 6 6 7 8 9 8 8 7 6 6 7 8 11 15 15 16 20 23 28 33 34 35 37 39 40 40 39 37 36 39 43 45 44 46 45 43 46 45 44 45 45 40 38 37 39 41 41 40 41 44 48 48 46 46 44 43 43
15 14 12 10 8 7 7 7 7 6 6 6 6 6 6 6 6 7 7 8 8 8 8 8 8 8 7 7 7 7 7 7 6 6 6 7 8 8 8 7 6 6 6 8 11 13 15 17 20 25 30 33 33 34 37 37 36 34 33 34 37 41 43 44 46 44 43 45 44 42 43 43 41 37 36 38 42 42 40 41 45 50 50 46 43 42 41 42
18 16 15 13 11 9 8 7 7 7 6 6 6 6 6 5 6 6 6 7 7 8 7 7 7 7 7 7 7 8 7 7 7 7 8 8 8 8 8 8 7 6 6 6 8 10 13 15 18 22 28 33 33 33 34 34 33 31 32 34 35 38 40 44 47 44 43 44 43 42 42 43 42 38 38 39 41 42 41 42 46 49 48 44 41 40 41 41
20 19 17 16 14 12 10 9 8 7 7 7 7 6 6 6 5 5 5 6 7 7 7 7 7 7 7 7 9 9 7 7 9 9 9 9 8 8 8 8 7 6 5 6 6 8 10 13 16 21 28 32 32 32 32 32 31 30 29 29 31 33 37 43 47 45 44 43 42 42 43 46 42 38 42 43 42 42 41 42 44 45 43 39 40 40 40 40
21 20 19 18 17 15 13 12 10 9 8 7 7 7 6 6 5 5 5 5 6 6 6 6 7 7 7 7 9 9 6 7 9 9 9 9 9 9 9 8 8 7 6 6 5 6 8 10 16 23 28 30 31 30 30 31 31 30 28 26 27 29 33 40 46 47 46 44 43 43 44 46 44 40 42 43 41 40 40 42 43 42 39 36 37 39 40 40
22 21 20 19 18 17 16 15 13 11 10 8 7 6 7 6 6 5 5 5 5 6 6 6 6 6 6 6 6 7 7 7 8 9 8 8 9 9 9 8 8 7 7 6 5 5 6 9 17 25 26 27 30 30 30 30 30 29 28 27 27 26 27 33 41 48 47 45 45 45 45 45 46 42 41 43 42 40 40 42 43 41 36 32 34 36 40 41
23 22 22 21 20 19 18 16 15 14 12 10 8 7 6 6 6 6 5 5 5 5 5 5 5 5 6 6 5 6 7 7 7 8 7 6 8 9 9 9 8 7 7 6 5 5 5 8 17 25 25 25 28 28 29 29 29 30 29 29 28 25 25 27 33 41 44 44 42 42 45 46 47 44 40 42 43 41 41 41 42 40 35 30 31 34 37 39
24 24 23 22 22 21 19 18 17 16 14 13 11 9 7 7 6 6 5 5 5 5 5 5 5 5 6 5 5 6 7 7 7 6 6 6 6 7 8 9 9 8 8 7 7 6 5 8 16 22 23 23 24 26 28 28 29 29 29 27 25 24 26 26 28 36 43 44 41 39 43 46 48 46 41 43 45 42 41 40 39 39 36 31 29 32 35 37
25 25 24 24 23 22 21 20 19 17 15 14 13 11 9 7 7 6 6 5 5 5 5 5 5 5 7 6 4 5 6 7 6 5 6 6 6 7 8 9 9 9 8 8 8 8 7 9 15 18 20 20 21 23 26 28 28 27 26 25 24 22 25 26 27 35 42 44 42 39 42 45 47 46 42 42 46 46 44 40 38 38 37 32 29 30 33 34
26 26 25 25 24 23 22 21 20 19 18 16 14 13 11 10 9 9 8 7 7 7 6 7 7 8 10 8 5 6 6 6 6 6 6 6 6 7 8 9 10 9 7 7 7 8 8 10 13 15 16 18 19 20 22 26 28 27 25 24 23 22 25 26 26 30 36 40 41 40 42 45 46 46 43 41 44 49 48 42 38 37 37 33 29 29 31 30
27 26 26 25 25 24 23 22 21 19 19 18 16 14 14 14 13 11 11 11 11 11 8 10 14 14 11 7 6 7 6 7 7 7 7 6 6 7 8 9 10 10 8 7 7 7 9 11 13 14 14 16 16 18 20 22 24 25 25 24 23 22 24 26 25 28 33 37 39 40 42 44 45 44 43 42 43 49 50 44 39 37 37 35 30 28 31 28
26 26 26 25 25 25 24 23 22 20 19 17 16 17 18 17 15 15 15 13 13 14 11 13 16 14 10 8 7 6 7 9 8 8 8 7 6 7 8 9 11 11 9 8 8 8 10 11 12 14 14 14 15 16 17 17 20 24 24 25 24 22 22 24 25 28 33 34 36 39 42 43 45 43 41 41 41 45 48 48 45 40 36 36 33 30 30 29
26 26 26 26 25 25 24 24 23 21 19 18 18 18 18 18 17 19 19 15 14 16 15 15 15 10 9 9 9 7 8 11 10 9 10 9 7 7 8 9 11 11 10 9 9 8 10 12 13 14 14 14 14 13 14 15 20 24 24 25 25 23 22 24 26 28 32 35 36 39 41 42 43 44 43 42 39 40 43 46 47 43 36 35 36 32 30 29
25 25 25 26 26 25 25 24 23 21 19 19 19 19 19 19 19 20 19 16 15 15 14 14 14 12 10 9 9 10 11 11 11 10 11 11 9 8 8 10 11 11 10 10 9 8 9 12 13 13 13 14 14 13 13 14 18 22 23 25 26 24 23 24 26 27 31 35 37 38 40 41 42 42 44 44 42 39 39 44 48 44 37 34 36 34 30 29
25 25 24 25 25 25 25 25 24 23 20 20 20 20 21 21 20 19 17 16 16 15 13 12 13 13 12 10 9 12 15 13 13 12 12 13 11 10 10 10 11 11 10 10 9 9 10 11 11 11 11 12 13 13 13 14 16 20 20 23 25 25 23 22 24 27 30 34 38 39 41 42 42 42 44 46 45 41 40 45 49 46 39 34 35 36 32 29
26 25 25 24 25 25 25 26 25 24 23 22 21 22 23 22 21 20 18 17 16 15 15 13 12 12 11 10 8 11 16 16 13 12 13 13 12 12 10 10 10 10 11 10 11 11 11 11 9 9 10 10 12 12 13 13 15 17 19 22 23 23 23 22 25 27 30 34 37 39 41 41 42 42 42 44 44 42 40 43 47 48 42 37 37 38 35 32
25 25 25 25 25 26 26 26 26 26 25 23 23 24 24 22 22 21 19 17 15 15 14 13 13 12 11 11 9 10 14 15 14 12 12 13 13 12 11 10 9 10 11 11 11 12 13 12 9 8 9 9 10 11 12 12 13 14 17 20 19 20 24 23 25 28 30 34 36 37 39 40 43 43 42 42 43 43 42 42 43 45 44 39 38 39 36 33
22 22 24 24 25 26 26 27 28 28 26 24 25 25 24 23 22 20 20 19 16 15 15 14 13 12 11 12 9 9 10 11 12 13 12 12 13 13 11 10 9 10 11 12 12 12 13 11 9 9 8 9 9 9 10 10 11 12 14 16 16 20 24 24 26 28 28 32 34 35 39 42 44 45 43 43 44 44 44 43 42 43 44 41 40 39 37 34
18 19 20 22 24 25 26 27 28 28 26 25 26 25 25 24 23 21 22 21 18 16 15 14 13 13 12 12 10 9 9 9 10 12 13 12 12 13 12 10 10 10 11 12 13 13 13 11 10 11 9 8 8 8 8 8 10 11 12 13 14 19 24 24 25 27 28 32 36 38 42 46 46 44 43 43 44 45 44 44 43 42 43 43 41 40 38 37
15 16 16 18 20 22 25 26 27 27 27 27 27 25 25 24 23 22 22 23 21 17 15 15 13 12 12 12 12 10 9 9 8 10 12 12 12 13 13 12 11 11 10 12 13 13 12 11 10 11 10 9 9 9 8 8 9 9 9 10 13 17 22 25 25 27 30 34 37 39 41 44 45 44 43 42 42 44 44 44 43 41 42 42 43 42 39 37
14 14 14 16 17 19 22 24 25 26 27 29 28 26 26 24 23 22 23 26 24 17 15 15 13 12 11 12 11 10 10 9 8 9 11 11 12 13 14 13 12 11 10 12 14 13 12 12 11 10 10 9 8 8 8 7 8 8 8 9 12 15 20 24 26 27 29 30 32 38 39 41 44 43 42 41 41 43 44 43 42 41 40 40 41 42 40 36
14 14 14 15 15 17 20 21 22 24 26 28 29 29 27 25 24 23 26 31 25 16 15 15 14 12 11 11 10 10 10 9 8 8 9 11 12 12 14 13 12 12 11 12 13 11 11 12 11 10 10 10 9 8 7 7 8 7 7 8 10 13 19 24 26 27 27 27 28 34 38 42 45 42 40 41 40 42 42 40 40 41 39 39 39 39 40 37
13 12 13 13 13 14 17 18 19 22 25 27 28 29 27 27 26 25 30 32 22 15 16 15 14 14 12 12 11 10 10 9 9 9 9 12 12 12 13 13 12 12 11 12 12 11 11 11 11 11 11 10 9 8 8 8 8 6 6 7 8 12 17 22 25 25 26 27 27 29 32 39 45 43 44 45 41 39 38 37 39 41 40 39 38 36 38 38
11 11 11 12 12 13 14 15 17 19 22 25 28 28 27 28 27 28 33 30 19 16 16 15 15 15 14 13 12 11 11 10 10 10 10 11 12 12 13 13 13 13 13 13 12 11 11 11 11 12 11 10 9 8 8 9 8 7 6 6 7 10 15 21 24 24 26 28 27 27 27 32 38 42 43 43 37 35 35 35 37 40 40 40 38 36 36 38
11 10 10 11 12 12 13 13 15 17 19 22 26 27 28 29 28 30 30 24 19 18 17 17 17 15 15 15 15 13 13 12 11 11 11 12 13 13 13 13 14 13 14 13 12 10 10 11 12 11 11 11 11 9 8 9 9 8 7 7 7 9 14 19 22 23 26 29 28 26 26 28 32 34 35 34 32 31 31 32 35 38 38 37 37 36 36 36
14 12 11 10 11 12 12 11 12 14 16 21 26 28 29 28 26 28 26 20 20 21 18 19 19 16 16 16 15 15 14 13 12 12 12 12 13 13 13 13 14 14 14 13 12 11 11 11 11 11 11 12 13 12 10 9 9 9 8 8 8 9 11 16 19 22 25 27 27 26 25 28 28 27 27 29 28 28 28 29 32 34 34 34 35 36 36 36
17 14 12 11 11 11 11 11 11 11 14 21 29 30 29 29 27 24 22 21 22 20 18 19 19 17 17 16 16 15 15 14 13 13 13 12 13 13 12 12 13 13 13 13 12 12 12 11 10 12 12 11 13 14 12 11 10 9 9 8 9 9 11 13 16 18 20 22 23 23 26 29 28 25 24 25 24 24 26 27 29 30 30 31 33 34 35 35
17 15 13 10 11 12 13 14 14 13 15 21 30 31 28 29 29 23 22 23 22 21 21 20 19 19 18 17 16 15 15 16 15 14 14 13 13 13 12 12 13 12 13 13 13 12 13 14 11 11 11 11 12 13 13 12 11 9 9 9 9 9 10 12 13 15 17 19 19 21 26 29 28 25 22 20 21 23 24 25 26 27 27 30 33 34 35 35
17 14 12 10 12 17 19 19 17 16 18 22 29 34 29 26 25 23 22 22 22 24 24 22 21 20 19 18 17 17 16 16 17 15 15 14 13 13 12 12 12 13 13 14 13 12 13 13 11 9 10 10 10 11 12 12 11 10 9 9 9 8 8 10 13 14 14 17 19 19 24 27 25 22 19 18 22 24 24 25 26 25 26 30 33 33 35 35
17 12 10 9 14 20 22 21 20 20 20 23 31 35 30 25 23 22 22 22 23 24 25 25 24 22 21 20 19 19 18 17 18 18 16 15 14 13 13 12 12 12 13 13 14 13 13 13 10 10 11 11 10 11 12 12 12 11 9 9 9 8 8 9 11 12 11 14 17 15 18 23 22 18 17 17 21 25 25 26 27 26 27 29 30 32 34 35
18 14 8 10 17 22 23 22 22 23 22 25 32 32 27 26 24 23 23 24 25 25 27 29 28 25 23 22 21 21 20 19 19 19 18 17 16 14 13 13 12 12 12 13 14 14 14 13 11 10 11 11 10 11 11 12 12 12 10 8 9 9 9 9 10 11 10 13 15 12 12 16 17 18 17 16 20 24 24 25 26 27 28 28 28 31 32 33
22 16 9 10 16 21 23 22 22 25 26 28 33 31 27 26 25 24 24 24 26 27 30 32 31 28 26 24 23 22 21 21 20 20 20 19 18 16 15 14 13 13 13 13 15 15 15 15 13 11 10 10 11 12 12 13 12 12 11 9 10 10 9 9 11 10 10 12 13 12 12 13 14 17 17 15 18 22 21 24 27 27 27 26 27 30 31 31
24 20 12 10 14 18 23 24 24 27 31 34 36 33 28 25 23 23 24 24 25 29 32 34 32 31 29 27 26 26 24 23 22 22 21 21 20 17 17 16 15 14 14 15 15 15 15 15 14 12 11 10 11 13 14 14 12 12 12 10 10 10 8 9 9 10 12 15 14 12 12 14 14 14 14 13 16 20 20 24 28 26 25 24 24 27 30 31
28 28 17 10 14 18 22 25 27 30 35 35 34 32 28 27 25 24 25 25 25 27 32 35 34 34 34 32 30 30 29 26 25 24 22 20 19 19 18 19 17 16 16 16 16 16 17 17 15 14 13 11 12 13 13 13 13 13 12 12 10 9 9 8 8 8 11 17 20 16 12 14 15 13 12 12 15 19 21 24 27 27 26 24 23 25 29 31
32 33 20 12 19 22 23 30 34 36 40 39 37 36 33 31 30 28 25 25 24 25 28 34 37 36 35 36 34 34 34 30 27 26 24 21 20 19 19 20 20 19 19 18 17 17 17 17 17 14 14 14 13 13 13 12 13 13 12 12 10 10 10 8 10 10 8 11 19 18 14 15 15 13 11 12 15 18 21 23 26 27 27 27 26 27 30 31
35 33 20 15 22 25 26 34 40 43 46 44 42 41 37 35 34 31 27 25 25 25 25 29 35 36 35 36 36 37 38 34 30 28 25 23 21 20 21 24 26 24 21 19 18 19 19 19 19 16 14 15 14 13 14 13 13 13 12 11 11 11 10 9 13 14 9 8 12 13 13 13 13 13 12 12 14 16 20 23 24 25 26 27 29 30 30 31
39 34 22 18 24 28 30 34 38 44 48 47 46 44 42 40 37 33 31 28 28 29 27 26 30 34 37 36 36 40 42 38 33 30 27 26 24 22 24 27 29 26 24 22 20 22 23 21 20 19 16 14 14 14 14 14 15 15 14 12 12 12 10 9 13 15 11 8 9 10 10 11 12 12 10 12 15 17 20 23 24 26 26 27 28 29 30 31
41 36 28 27 30 33 39 43 44 45 47 50 53 53 50 48 44 41 41 38 34 32 31 29 31 35 39 40 38 41 45 44 40 36 33 31 28 27 27 27 26 25 26 28 28 27 25 23 21 22 20 18 16 15 15 15 16 15 14 13 13 12 12 10 11 12 11 10 10 9 9 11 14 11 7 9 12 17 22 24 25 28 28 27 29 30 31 32
46 41 35 36 38 38 44 52 53 51 49 49 54 56 56 55 51 48 49 47 42 41 41 38 39 39 40 42 42 43 46 48 47 44 40 36 32 30 30 28 26 26 27 31 34 30 26 23 22 22 22 20 17 16 17 17 15 14 14 14 14 14 14 14 12 10 12 14 12 10 11 12 13 11 7 6 8 13 21 25 26 28 29 29 30 31 33 34
53 50 43 42 43 42 47 55 57 57 56 54 53 52 53 56 55 51 48 46 44 46 48 47 46 45 43 44 46 47 48 48 48 49 46 41 37 34 32 31 29 29 30 34 35 32 26 24 22 20 20 18 16 16 18 18 15 14 15 15 16 17 15 16 15 12 13 14 12 13 16 13 10 8 7 7 7 11 17 21 23 25 28 30 31 33 35 35
59 60 57 55 53 50 52 58 60 60 61 61 58 53 51 53 55 52 48 44 41 43 47 48 46 47 47 48 49 49 50 49 50 51 49 45 41 37 35 34 33 32 33 35 36 34 30 26 22 19 19 18 17 16 15 15 14 14 15 15 16 19 18 16 14 13 14 13 10 14 18 13 9 9 9 8 9 13 18 22 22 24 26 30 33 36 37 36
63 66 68 71 71 67 65 66 68 66 63 64 64 59 55 55 56 56 53 46 41 42 47 47 45 49 51 49 51 52 51 52 53 53 51 47 43 40 37 35 34 34 34 34 35 36 36 31 23 19 18 17 18 18 15 14 15 15 16 15 15 19 20 18 15 14 15 12 9 13 17 14 12 12 11 10 11 16 21 22 22 24 26 28 31 35 38 38
67 69 74 79 80 78 77 77 77 73 67 69 71 66 63 62 62 63 60 52 46 46 51 50 47 53 56 52 52 54 53 55 57 56 54 51 47 44 41 38 35 34 35 36 36 37 38 36 29 24 21 18 18 19 17 16 16 17 18 17 16 18 20 19 18 16 15 13 11 12 15 14 13 13 12 12 13 17 21 22 21 23 25 27 30 34 36 37
71 75 79 83 81 79 80 80 79 74 69 72 76 73 73 74 71 70 69 66 61 56 58 60 56 56 57 55 54 53 51 53 57 57 58 57 52 48 45 43 39 35 36 38 36 37 40 40 37 32 28 23 20 19 19 18 18 19 21 20 19 19 19 20 20 19 18 16 14 14 13 13 12 13 14 13 12 13 17 21 23 23 23 25 28 30 31 34
74 81 85 86 84 80 80 81 79 76 73 75 77 76 77 80 80 77 72 72 74 70 69 73 70 60 56 54 53 52 49 50 53 56 59 58 54 51 48 46 44 41 40 40 38 38 40 40 39 38 34 29 23 21 21 19 18 21 22 22 23 22 20 20 21 23 22 19 17 16 14 13 12 12 12 13 14 12 14 19 23 24 26 27 27 30 32 34
78 85 87 87 84 81 82 84 82 81 79 79 79 79 77 77 78 78 73 68 73 78 79 81 78 70 62 54 49 50 52 50 48 53 60 59 54 52 50 48 48 47 45 45 42 39 40 40 41 43 42 35 28 24 24 23 22 21 21 22 24 24 22 21 22 24 23 21 18 16 13 12 12 11 10 12 14 14 14 17 20 23 29 30 28 30 34 35